Temp
71 70 68 68 66 65 64 62 61 63 64 65 65 66 67 65 63 62 59 63 65 66 66 66 65 65 64 63 63 63 63 63 63 62 62 62 62 61 62 61 62 62 62
71 70 69 68 68 67 66 64 62 61 61 62 63 65 65 65 62 60 58 58 62 63 64 65 65 64 63 63 62 62 62 62 62 62 61 61 60 60 61 61 61 61 61
70 69 69 69 69 67 64 63 62 61 60 63 61 62 62 62 61 60 57 56 58 59 61 62 62 63 63 62 61 61 61 61 61 61 60 60 60 60 60 60 60 61 61
69 68 69 67 65 64 65 62 62 60 59 59 58 57 58 59 60 59 58 58 56 56 57 58 59 60 60 61 61 61 61 60 60 60 60 59 59 59 59 60 60 60 60
69 69 66 64 64 63 63 63 61 60 59 58 58 57 55 56 56 61 59 58 56 54 52 56 56 56 56 58 59 60 60 60 59 59 59 58 59 58 59 59 59 59 59
67 67 67 64 63 63 62 61 60 60 60 59 63 57 55 55 54 54 56 60 56 54 52 51 49 51 54 55 56 57 58 58 58 58 58 58 58 58 58 58 58 58 58
65 64 64 64 63 63 62 60 59 58 59 59 55 51 53 54 53 53 54 55 54 55 53 50 51 49 50 52 53 54 56 57 57 57 57 57 56 56 56 56 56 56 56
63 63 64 65 63 62 60 60 60 59 58 58 52 51 44 47 51 53 53 54 51 53 53 54 53 51 49 47 46 51 52 54 55 56 55 55 55 55 55 55 55 55 55
62 62 63 63 61 61 61 59 60 60 56 56 56 51 45 42 47 49 53 55 53 52 51 51 52 52 50 46 45 46 48 50 53 54 54 54 54 54 54 54 54 54 54
61 61 61 62 60 60 61 60 61 60 58 53 54 56 55 51 45 42 50 52 53 51 49 49 49 51 49 44 45 46 46 47 50 52 54 54 53 53 53 53 52 53 53
60 60 60 60 58 59 60 58 57 59 58 54 55 54 50 52 52 47 44 47 51 51 50 48 48 47 49 45 40 43 45 46 48 50 51 51 51 51 51 51 52 51 51
57 58 58 58 58 58 58 57 57 57 58 56 55 55 53 51 50 49 47 47 45 47 49 48 47 47 45 42 45 44 44 45 46 48 48 49 49 49 49 49 50 50 50
54 55 56 56 55 57 56 56 56 56 54 54 54 53 52 53 52 53 50 47 44 42 44 47 48 47 48 43 42 43 44 43 44 46 46 46 46 46 47 47 48 48 48
54 55 54 55 54 54 54 54 54 54 53 52 51 51 49 50 48 54 51 47 39 40 41 42 47 46 45 42 42 43 39 42 43 43 44 44 44 44 44 44 45 45 46
55 54 54 53 53 52 52 52 52 52 51 50 49 48 47 46 48 49 53 50 44 37 37 42 43 47 43 42 43 40 38 41 41 42 42 42 42 42 42 42 42 43 44
54 53 52 52 51 50 50 50 49 49 49 46 46 46 44 45 47 47 49 53 51 46 40 44 44 45 45 47 44 39 39 40 40 40 41 40 40 41 40 40 40 40 41
53 51 51 50 47 47 47 47 46 47 46 44 45 45 44 47 45 45 46 48 51 50 41 43 45 46 43 42 42 39 39 36 35 40 40 40 39 39 39 39 38 38 39
51 50 49 46 45 44 45 44 43 45 45 44 44 45 43 46 44 44 44 45 47 47 44 39 42 41 40 41 40 39 41 42 36 39 40 40 39 39 38 38 38 37 37
47 47 45 44 42 43 42 44 45 43 43 43 42 42 41 43 42 42 42 42 44 47 43 40 38 40 41 39 37 38 39 36 42 40 39 39 39 39 38 38 37 37 37
43 42 42 42 42 42 42 41 41 39 39 40 40 41 41 42 42 42 42 42 42 41 40 38 38 38 38 36 35 34 32 36 35 41 40 38 39 39 38 37 36 36 36
42 41 40 40 40 40 40 38 37 36 36 36 37 40 41 42 44 43 42 41 40 41 39 38 37 36 35 34 33 35 33 30 32 30 33 32 32 33 33 35 34 34 34
39 39 39 38 37 38 38 38 37 36 35 35 36 38 39 40 39 40 39 38 41 40 40 39 38 35 35 35 34 36 35 31 27 30 28 30 34 31 30 29 34 33 33
37 36 36 35 35 35 36 37 36 35 34 34 35 36 38 38 36 35 36 36 36 36 37 39 38 37 34 36 35 34 33 32 30 28 30 27 30 27 29 33 33 33 32
33 33 33 33 33 33 35 35 34 33 33 34 35 35 36 34 35 34 36 33 31 31 32 33 36 35 35 35 35 37 36 31 30 29 29 27 26 24 27 26 33 32 32
32 32 32 32 33 32 34 34 33 33 32 32 32 32 33 33 36 38 33 29 27 25 33 35 34 35 35 35 35 34 31 31 26 27 23 31 24 22 22 20 26 32 31
32 32 32 32 33 32 34 34 33 33 32 32 32 33 34 34 36 36 31 28 24 23 24 25 25 28 29 31 33 32 29 29 27 26 22 23 21 21 26 29 23 23 23
MSLP
1013.99 1014.37 1015.12 1015.67 1016.21 1016.63 1016.76 1017.14 1017.31 1017.32 1017.45 1017.69 1017.80 1018.00 1018.44 1019.25 1019.99 1021.16 1021.86 1022.13 1022.19 1022.28 1022.33 1022.45 1022.72 1022.87 1023.03 1023.12 1023.23 1023.28 1023.38 1023.36 1023.36 1023.54 1023.57 1023.52 1023.47 1023.55 1023.51 1023.44 1023.29 1023.13 1022.97
1013.56 1013.99 1014.48 1014.92 1015.43 1015.87 1016.32 1016.53 1016.97 1017.29 1017.55 1017.84 1018.17 1018.22 1018.58 1019.20 1020.19 1021.23 1022.13 1022.54 1022.72 1022.80 1022.74 1022.81 1023.00 1023.13 1023.22 1023.42 1023.56 1023.58 1023.56 1023.56 1023.56 1023.61 1023.70 1023.72 1023.68 1023.66 1023.62 1023.55 1023.37 1023.23 1023.08
1013.10 1013.39 1013.77 1014.10 1014.26 1014.79 1015.50 1016.14 1016.77 1017.33 1017.86 1018.11 1018.55 1018.53 1018.74 1019.51 1020.35 1021.22 1022.17 1022.63 1023.14 1023.47 1023.32 1023.30 1023.43 1023.58 1023.56 1023.59 1023.65 1023.74 1023.75 1023.79 1023.81 1023.82 1023.86 1023.83 1023.80 1023.83 1023.79 1023.70 1023.55 1023.32 1023.07
1012.79 1013.13 1013.53 1014.01 1014.09 1014.18 1014.69 1015.75 1016.45 1017.22 1017.72 1018.15 1018.74 1019.20 1019.30 1019.63 1020.33 1020.94 1021.72 1022.53 1023.25 1023.83 1024.03 1024.06 1024.09 1024.16 1024.15 1023.99 1023.80 1023.78 1023.82 1023.88 1023.97 1023.96 1024.00 1023.98 1023.89 1023.79 1023.72 1023.65 1023.52 1023.33 1023.12
1011.76 1012.33 1013.02 1013.62 1013.96 1014.42 1015.00 1015.35 1015.98 1016.45 1017.39 1018.21 1018.79 1019.49 1019.97 1020.22 1020.43 1020.61 1021.31 1021.91 1022.71 1023.67 1024.44 1024.64 1024.73 1024.73 1024.77 1024.67 1024.41 1024.17 1024.19 1024.22 1024.24 1024.23 1024.30 1024.27 1024.16 1024.02 1023.87 1023.73 1023.55 1023.37 1023.15
1010.96 1011.63 1012.22 1012.90 1013.37 1014.19 1014.68 1015.32 1015.99 1016.35 1016.77 1017.59 1018.66 1019.63 1020.26 1020.76 1020.73 1021.00 1021.22 1021.78 1022.16 1023.05 1024.07 1024.75 1025.08 1025.05 1025.11 1025.16 1025.03 1024.75 1024.60 1024.59 1024.59 1024.45 1024.57 1024.54 1024.41 1024.21 1024.13 1023.99 1023.81 1023.65 1023.48
1010.89 1011.33 1011.52 1012.29 1012.56 1013.56 1014.12 1014.78 1015.35 1015.93 1016.70 1017.15 1018.41 1019.95 1020.64 1021.03 1021.05 1021.37 1021.43 1021.86 1022.17 1022.53 1023.56 1024.06 1024.80 1025.18 1025.46 1025.75 1025.63 1025.35 1025.10 1024.97 1024.91 1024.94 1024.83 1024.72 1024.57 1024.39 1024.25 1024.15 1023.98 1023.86 1023.61
1010.39 1010.90 1011.10 1011.24 1011.93 1012.57 1013.56 1014.29 1014.75 1015.37 1015.94 1016.49 1017.62 1019.43 1020.87 1021.44 1021.28 1021.16 1021.37 1021.92 1022.17 1022.43 1023.03 1023.30 1023.91 1024.97 1025.33 1025.90 1026.34 1026.17 1025.95 1025.59 1025.43 1025.40 1025.26 1025.00 1024.74 1024.58 1024.52 1024.46 1024.30 1024.12 1023.81
1009.65 1009.95 1010.46 1010.41 1011.05 1011.65 1012.10 1012.81 1013.75 1014.44 1015.07 1015.94 1016.41 1016.71 1019.07 1019.86 1020.90 1021.06 1020.99 1021.57 1022.13 1022.64 1023.05 1023.50 1023.70 1024.39 1025.29 1025.98 1026.60 1026.64 1026.60 1026.39 1025.97 1025.68 1025.51 1025.32 1025.15 1024.93 1024.86 1024.82 1024.64 1024.32 1023.96
1008.82 1009.21 1009.38 1009.61 1009.82 1010.65 1011.17 1011.80 1012.18 1012.98 1013.65 1014.66 1015.95 1015.54 1015.88 1016.60 1018.97 1020.74 1020.91 1021.25 1021.59 1022.42 1023.42 1023.78 1024.20 1024.09 1025.27 1026.08 1026.89 1027.10 1026.89 1026.66 1026.61 1026.19 1025.92 1025.54 1025.44 1025.32 1025.21 1025.06 1024.85 1024.43 1024.00
1008.01 1008.32 1008.49 1008.93 1009.09 1009.49 1010.04 1010.69 1011.46 1011.70 1012.60 1013.75 1013.86 1014.83 1015.60 1016.32 1016.47 1017.94 1019.82 1020.62 1021.30 1022.07 1023.00 1024.03 1024.29 1024.31 1025.20 1025.88 1026.88 1027.12 1027.19 1026.87 1026.66 1026.69 1026.49 1026.08 1025.77 1025.66 1025.47 1025.11 1024.82 1024.62 1024.46
1006.57 1007.17 1008.00 1007.90 1008.40 1008.54 1009.16 1009.91 1010.72 1011.10 1011.63 1012.75 1013.40 1014.25 1014.39 1015.31 1015.64 1016.41 1018.06 1020.14 1020.96 1021.55 1022.77 1023.98 1024.46 1024.27 1025.32 1026.08 1026.39 1027.33 1027.42 1027.29 1026.93 1026.70 1026.68 1026.64 1026.37 1026.09 1025.85 1025.47 1025.04 1024.89 1024.80
1005.61 1005.94 1006.56 1007.22 1007.53 1007.77 1008.20 1009.10 1009.86 1010.20 1010.57 1011.74 1012.68 1013.27 1013.73 1014.33 1014.72 1015.68 1017.10 1019.17 1020.05 1022.30 1022.98 1024.04 1024.02 1024.07 1025.03 1026.14 1026.47 1027.16 1027.39 1027.34 1027.37 1027.09 1026.76 1027.00 1026.95 1026.62 1026.15 1025.95 1025.86 1025.74 1025.54
1003.48 1004.14 1005.21 1005.32 1006.15 1006.91 1007.49 1007.84 1009.20 1009.99 1010.49 1011.14 1012.19 1012.64 1013.80 1014.39 1014.46 1014.68 1015.73 1017.21 1020.32 1021.37 1023.60 1024.07 1023.47 1024.15 1024.75 1025.74 1026.22 1027.11 1027.56 1027.51 1027.33 1027.22 1027.06 1027.36 1027.29 1027.12 1026.66 1026.60 1026.85 1026.63 1026.23
1002.39 1002.56 1003.28 1004.05 1004.82 1005.58 1006.69 1007.39 1007.59 1009.53 1010.14 1010.62 1011.42 1012.28 1013.16 1013.98 1013.93 1014.85 1015.16 1016.89 1016.43 1020.69 1022.60 1023.59 1022.93 1023.45 1024.92 1025.67 1025.84 1027.07 1027.61 1027.95 1027.47 1027.48 1027.44 1027.70 1027.51 1027.23 1027.19 1027.37 1027.43 1026.89 1026.23
1001.23 1001.36 1001.75 1002.72 1003.70 1004.77 1005.92 1006.68 1007.80 1008.30 1009.94 1010.32 1011.08 1011.65 1012.93 1013.71 1013.83 1014.77 1015.34 1015.94 1016.82 1018.44 1020.91 1021.90 1022.33 1022.87 1024.37 1025.16 1025.77 1026.84 1027.59 1028.25 1028.03 1027.78 1027.62 1027.78 1027.60 1027.47 1027.79 1028.03 1027.84 1027.10 1026.65
998.85 999.49 1000.21 1001.32 1002.78 1003.93 1005.33 1006.23 1007.36 1008.58 1009.54 1010.39 1010.75 1011.45 1012.95 1014.25 1014.25 1014.62 1014.84 1015.68 1016.68 1017.88 1019.84 1021.11 1021.61 1022.59 1023.71 1024.70 1025.55 1026.56 1027.20 1028.08 1027.89 1027.71 1027.76 1027.83 1027.78 1027.81 1028.36 1028.28 1028.10 1027.91 1027.17
997.83 998.37 999.70 1000.59 1002.10 1003.29 1004.57 1005.67 1006.34 1007.80 1009.20 1010.35 1011.02 1011.73 1013.02 1013.76 1013.52 1013.75 1014.49 1016.21 1016.43 1017.54 1018.70 1020.42 1021.59 1022.75 1023.11 1024.29 1025.02 1025.79 1026.54 1027.33 1027.63 1027.69 1027.86 1027.82 1027.79 1028.03 1028.52 1028.15 1027.92 1028.04 1027.37
998.04 998.27 999.35 999.85 1001.24 1002.80 1004.11 1005.28 1006.24 1007.52 1008.77 1009.94 1011.12 1011.54 1012.23 1012.90 1014.05 1013.25 1015.22 1016.20 1017.09 1017.96 1019.34 1020.25 1021.44 1022.23 1023.05 1023.79 1024.61 1025.00 1025.68 1026.70 1026.85 1027.26 1027.88 1027.75 1027.63 1027.89 1028.23 1028.06 1028.00 1027.65 1027.52
999.06 999.08 1000.33 1000.55 1001.45 1002.77 1004.15 1005.38 1006.32 1007.54 1008.59 1009.86 1011.07 1012.38 1013.42 1013.41 1013.91 1014.54 1015.28 1016.09 1017.62 1018.98 1019.77 1020.48 1020.92 1022.25 1023.32 1024.02 1024.48 1024.90 1025.48 1025.81 1026.21 1026.62 1027.26 1027.61 1027.72 1027.94 1028.06 1028.13 1027.79 1027.89 1027.68
999.81 999.97 1000.54 1001.34 1002.47 1003.11 1004.18 1005.60 1006.83 1007.07 1008.79 1010.20 1011.66 1011.59 1012.94 1014.19 1013.94 1014.89 1015.30 1016.39 1017.62 1018.37 1019.34 1020.03 1020.71 1022.42 1023.33 1023.68 1023.95 1024.56 1025.08 1025.39 1025.67 1026.37 1026.73 1027.28 1027.64 1027.77 1027.83 1028.14 1028.19 1028.01 1028.07
1000.70 1001.00 1001.54 1002.14 1003.42 1004.14 1005.13 1005.93 1006.99 1008.22 1009.33 1010.47 1011.25 1012.91 1013.32 1013.67 1014.45 1015.14 1015.95 1016.59 1017.25 1018.09 1018.94 1019.63 1020.27 1021.39 1022.21 1022.92 1023.09 1023.84 1024.45 1025.30 1026.22 1026.20 1026.63 1026.68 1027.06 1027.76 1027.90 1028.10 1028.29 1028.11 1028.32
1001.50 1001.64 1002.48 1003.28 1004.17 1004.90 1005.69 1006.58 1007.80 1008.84 1009.99 1011.01 1011.47 1012.69 1012.96 1014.30 1014.70 1016.03 1016.68 1017.06 1017.70 1018.08 1018.94 1019.33 1019.91 1020.83 1021.46 1022.18 1022.47 1023.06 1023.66 1024.34 1025.19 1025.94 1026.41 1027.12 1027.31 1027.87 1028.11 1028.35 1028.15 1028.49 1028.50
1002.27 1002.74 1003.25 1003.81 1004.53 1005.57 1006.26 1007.59 1008.63 1009.70 1010.69 1011.41 1011.66 1013.08 1013.50 1014.65 1015.68 1016.34 1017.01 1017.75 1018.35 1018.73 1019.50 1019.40 1019.84 1020.69 1021.03 1021.68 1022.21 1022.49 1023.11 1024.42 1025.47 1026.15 1026.49 1027.10 1027.23 1028.11 1028.44 1028.71 1028.20 1028.25 1028.54
1003.14 1003.44 1003.87 1004.38 1005.01 1006.13 1006.99 1007.97 1008.91 1009.60 1010.47 1011.60 1012.45 1013.57 1014.29 1015.13 1015.55 1016.11 1017.08 1018.43 1019.10 1019.90 1020.32 1020.27 1020.44 1020.84 1021.42 1022.18 1022.73 1022.85 1023.49 1024.37 1025.52 1026.36 1026.88 1026.87 1027.57 1027.84 1028.62 1028.93 1028.18 1028.39 1028.48
1003.66 1003.96 1004.53 1005.03 1005.38 1006.61 1007.36 1008.31 1009.16 1010.10 1010.54 1012.04 1013.40 1014.36 1014.85 1015.28 1015.91 1016.54 1017.22 1018.38 1019.32 1020.39 1020.75 1021.15 1021.51 1021.64 1022.07 1022.80 1023.04 1023.12 1023.27 1024.20 1025.16 1026.37 1026.55 1027.04 1027.52 1027.49 1028.18 1027.94 1028.01 1028.10 1028.41
Wind_Speed
8 8 9 8 8 8 7 5 5 4 4 4 5 4 8 13 12 7 4 13 12 14 13 15 15 15 16 16 15 15 15 15 15 16 15 16 15 16 16 16 16 17 17
6 8 8 9 9 9 8 6 5 5 5 5 5 4 8 10 12 11 6 8 14 13 13 15 15 15 15 16 15 15 15 15 15 15 15 15 16 16 16 16 16 17 17
7 10 7 9 9 8 9 6 6 5 4 4 5 4 6 12 10 11 9 6 9 12 13 15 14 14 14 15 15 14 15 15 14 15 14 15 15 15 16 16 17 17 17
7 9 7 6 4 6 8 6 7 6 6 5 5 4 4 6 10 12 11 9 8 6 9 14 13 13 13 12 13 13 14 14 14 14 14 14 14 15 15 16 16 17 18
14 10 6 5 6 5 5 8 7 8 7 6 6 5 4 5 5 5 11 12 12 9 5 12 13 13 13 12 12 13 13 13 13 14 13 14 14 15 15 15 17 17 19
14 10 8 9 7 7 7 8 8 6 9 9 9 6 5 4 4 4 6 7 9 13 10 8 6 7 14 12 12 12 13 13 13 14 13 13 14 15 16 17 18 19 19
15 12 9 9 11 10 10 10 8 10 9 9 9 5 4 3 6 5 5 5 6 7 11 9 6 5 7 14 13 12 12 13 12 13 13 14 15 16 17 18 18 18 18
15 14 15 13 14 11 12 13 13 9 7 11 10 7 4 1 3 6 5 6 6 6 5 5 8 9 6 7 8 12 12 12 12 12 13 14 15 17 17 16 17 17 18
18 18 18 14 15 13 13 16 14 16 13 11 18 7 6 6 6 4 6 7 7 5 5 6 6 7 7 7 8 10 11 10 11 12 13 14 16 17 17 18 18 18 19
18 19 19 16 17 13 16 15 14 14 14 16 13 7 3 9 7 5 4 7 6 7 5 5 4 8 9 9 10 9 9 11 11 12 13 16 17 17 17 18 19 21 23
18 18 20 19 16 14 15 18 17 17 13 14 12 11 3 6 7 8 11 10 8 7 2 4 5 5 9 10 7 7 9 10 11 12 14 15 17 17 18 19 20 21 22
13 18 18 18 15 17 16 16 17 17 14 14 9 11 6 8 7 7 12 12 10 8 6 2 5 5 7 7 12 10 10 10 11 12 14 15 16 17 18 19 20 21 20
12 16 18 17 14 16 16 17 16 16 14 15 14 9 5 5 5 7 11 12 9 3 5 3 4 5 9 7 8 11 11 11 11 12 15 15 16 17 18 20 20 20 20
16 20 19 19 19 17 16 18 13 13 12 11 13 9 5 2 1 8 11 16 9 4 3 5 4 5 6 8 12 15 6 11 12 13 14 15 16 17 20 20 19 18 19
15 19 22 21 20 19 18 17 15 15 12 12 12 11 8 5 4 5 9 12 11 7 8 9 4 9 7 8 12 9 7 10 12 13 15 15 17 18 19 17 15 17 20
21 19 21 21 19 17 17 19 13 15 13 9 9 12 6 4 4 4 5 10 10 8 6 10 5 11 10 7 11 11 9 10 12 13 15 14 16 18 17 15 16 18 19
22 20 21 19 18 18 17 17 15 14 16 12 12 13 12 10 7 5 5 3 7 6 7 7 8 10 11 10 8 11 10 6 6 12 13 14 15 16 15 15 17 18 19
16 18 19 19 19 18 18 19 19 17 16 15 14 14 11 7 7 7 6 4 4 5 10 15 10 10 11 10 8 11 11 10 7 11 11 12 13 14 13 15 16 16 18
9 14 18 20 20 19 18 17 17 18 16 15 14 15 12 11 8 9 6 5 3 5 9 10 10 5 7 7 5 3 4 10 8 14 11 11 12 12 13 14 15 17 17
9 11 13 14 17 17 17 17 18 17 16 14 12 10 9 10 11 9 7 8 6 9 10 10 10 8 7 6 3 5 3 4 6 9 12 12 11 11 13 13 14 15 16
9 12 15 14 14 15 14 18 17 17 16 16 14 15 10 10 13 9 7 8 7 9 9 10 10 9 7 10 10 6 5 3 2 3 4 4 4 4 7 11 10 14 15
7 9 11 13 13 9 21 23 20 16 15 15 14 11 8 14 12 13 14 13 5 9 10 10 9 11 11 9 5 8 7 5 2 2 2 0 4 3 5 4 10 11 13
6 8 9 11 11 12 24 24 22 13 12 12 13 11 10 8 13 10 14 15 14 15 7 6 11 10 10 10 6 6 5 5 4 2 3 2 2 2 5 6 9 9 10
7 8 10 11 14 13 24 21 19 11 10 11 11 9 11 10 9 11 9 9 9 9 6 3 7 6 6 7 6 5 6 7 6 4 4 3 1 1 4 3 7 7 7
8 9 10 14 16 14 23 21 17 13 13 10 9 9 9 10 16 16 11 11 10 8 12 19 20 19 17 14 6 3 4 7 2 2 1 1 1 2 1 2 4 4 3
8 9 10 11 19 15 22 22 15 9 12 9 8 9 14 10 18 15 11 11 10 7 7 6 6 10 10 9 11 6 1 4 4 3 2 3 2 3 3 2 2 1 2
Wind_Direction
184 174 170 174 179 184 162 181 196 161 120 106 113 193 111 116 119 105 82 73 94 100 104 107 100 96 91 86 81 78 72 68 63 58 50 45 40 36 29 27 21 18 14
180 189 171 179 183 179 172 177 147 146 144 137 165 144 120 112 114 117 98 83 85 87 95 100 99 95 93 85 78 75 72 66 61 58 50 45 40 34 29 23 19 17 13
200 191 189 191 182 170 157 152 144 140 144 147 124 103 98 119 128 127 123 114 89 83 91 92 92 93 89 89 84 76 70 63 58 54 50 46 42 35 30 25 20 16 12
216 197 200 193 175 154 158 149 157 162 149 143 130 123 109 109 133 148 143 143 129 104 91 93 94 91 82 80 78 74 72 68 61 55 49 44 40 37 32 26 22 17 9
196 188 187 180 169 162 171 157 167 159 156 141 139 138 123 115 136 149 147 143 145 131 120 117 107 95 83 72 68 65 65 64 61 56 49 46 42 37 30 24 21 15 11
189 191 190 177 172 171 173 163 172 173 162 150 151 125 130 151 163 120 116 130 137 137 143 138 126 104 91 79 71 68 60 60 59 58 51 47 42 37 31 25 18 14 9
191 196 190 191 180 179 185 174 169 175 164 155 127 112 94 125 129 144 156 141 131 132 154 161 144 124 107 87 76 69 63 59 58 57 54 49 46 40 34 29 23 17 12
198 196 199 191 184 180 182 180 182 176 163 154 148 121 142 200 217 169 167 148 146 129 153 115 121 157 127 105 78 65 58 56 57 57 56 54 52 45 38 30 24 20 15
200 201 202 200 186 192 186 181 183 181 169 166 164 157 155 180 148 219 170 153 141 150 131 123 130 102 99 94 81 71 67 58 59 61 59 55 50 47 39 32 25 22 18
206 206 203 202 185 190 192 188 182 181 172 172 176 215 182 143 168 156 194 152 144 118 133 143 133 120 113 101 93 86 84 73 62 63 60 56 52 46 42 37 30 25 22
209 210 201 203 194 194 191 183 186 183 180 183 186 191 167 164 157 145 165 156 128 129 133 140 142 117 130 120 106 99 91 82 76 63 61 58 54 48 41 36 34 29 23
202 207 210 206 197 194 191 182 183 187 183 180 183 194 177 177 163 150 150 159 146 133 130 134 139 132 110 93 109 112 103 88 82 75 69 57 51 47 42 39 35 30 25
200 203 203 204 203 195 189 184 188 184 176 178 180 176 166 186 141 136 147 156 135 84 78 224 169 136 133 130 128 123 116 99 84 75 74 60 54 51 47 41 34 30 27
205 195 201 198 194 194 188 180 187 186 173 166 165 157 150 108 76 130 149 139 128 100 121 234 150 136 127 133 140 130 120 110 97 82 75 66 59 53 49 43 34 33 30
214 200 196 196 191 186 184 181 173 186 168 162 155 144 142 150 119 102 146 160 129 146 177 210 158 148 121 137 159 130 116 118 106 89 79 69 62 58 54 47 38 35 35
213 196 195 195 186 181 180 176 176 163 171 150 146 133 119 130 112 111 151 171 155 135 160 167 191 141 151 157 148 123 127 120 108 94 86 80 71 63 57 50 43 40 36
199 192 191 178 173 171 172 171 162 168 164 155 148 144 159 177 153 153 105 88 156 149 134 135 146 150 142 148 137 138 140 143 129 110 99 91 80 71 63 56 48 41 40
199 183 173 168 165 165 168 168 159 165 169 168 168 154 144 144 141 116 88 126 89 104 140 148 153 149 137 148 165 164 163 147 140 129 120 105 94 86 72 62 56 48 43
182 162 171 166 160 164 161 163 163 156 151 150 146 143 135 146 143 110 129 115 86 85 143 149 146 138 138 134 130 123 128 142 150 152 153 136 116 104 87 63 49 43 43
150 148 168 156 153 154 154 150 151 140 134 128 128 128 140 145 149 138 138 131 122 152 144 148 142 146 141 145 141 158 169 169 146 169 183 167 149 122 92 67 54 43 37
156 152 149 147 152 152 151 149 143 136 136 136 144 150 164 167 135 138 133 138 149 152 148 151 147 155 167 168 174 175 169 146 84 116 154 163 166 173 91 70 58 45 35
137 141 147 146 149 148 149 143 141 138 136 143 148 159 144 112 106 110 96 85 125 150 156 165 159 172 175 175 165 166 152 137 161 305 99 122 126 106 107 98 70 55 39
123 124 133 131 133 131 141 133 135 131 130 142 144 148 120 110 98 107 100 89 73 61 64 174 166 173 157 173 146 159 142 164 133 169 120 138 125 136 127 113 91 65 45
118 122 120 122 122 126 122 123 119 123 131 134 127 131 123 125 131 132 126 98 76 59 36 46 133 131 125 132 153 161 150 104 79 51 55 137 73 82 114 132 107 86 50
120 118 121 125 127 130 133 131 127 124 116 113 105 118 131 144 147 145 123 111 95 80 77 86 92 89 79 71 47 123 125 129 124 136 40 141 205 119 120 184 157 143 114
120 118 115 124 129 125 124 124 119 123 113 112 116 133 149 156 154 142 130 136 124 133 118 85 65 68 71 74 67 68 102 149 130 135 217 119 145 135 184 171 159 120 195